FENGYUN 1C DEB

Satellite information

Favourite Embed

Satellite Type and Status

DEBRISIN ORBIT

Key statistics

Satellite FENGYUN 1C DEB at a glance.

Uptime

9618

Days in orbit

Revolutions

≈ 13.8

Per day

Orbit

SSO

Sun Synchronous Orbit

Inclination

98.4

Latest

Satellite identification and parameters

Extended collection of information and parameters for FENGYUN 1C DEB.

Object identification

Identified? True

Debris? True

Object name: FENGYUN 1C DEB

International designator: 1999-025FB

Object number (NORAD): 29857

Object ID (CCSDS): 29857

Country: PEOPLES REPUBLIC OF CHINA (PRC)

Current information (Y/N): Y

RCS size: SMALL

Orbital parameters

Period: 104.243 minutes

Inclination: 98.4289 deg

SMA: 7337.11 km

Apoapsis: 1101.236 km

Periapsis: 816.713 km

RAAN: 267.2289 deg

Eccentricy: 0.01938933

Argument of periapsis: 198.6716 deg

Mean anomaly: 160.7258 deg

Mean motion: 13.81386594 rev/day

Mean motion (dot): 0.00001845 rev/day2

B* drag term: 0.0015355136 1/REarth

Two-line elements (TLE)

Creation date: Sept. 7, 2025, 3:09 a.m.

Reference frame: TEME

Reference center: EARTH

Epoch: Sept. 6, 2025, 2:31 p.m. UTC

TLE line 0: 0 FENGYUN 1C DEB

TLE line 1: 1 29857U 99025FB 25249.60549991 .00001845 00000-0 15355-2 0 9990

TLE line 2: 2 29857 98.4289 267.2289 0193893 198.6716 160.7258 13.81386594934340

Live tracking on map

Real-time ground track for satellite FENGYUN 1C DEB.

In-orbit conjunctions

A list of the most updated potential collisions computed for object FENGYUN 1C DEB.

Target Orbit TCA Probability of collision Miss distance Type
FENGYUN 1C DEB SSO 2025-02-08 09:39:19 0.0004223641 60.0 (m) DEBRIS
SS 2 LEO 2024-11-16 04:38:29 0.0003976324 497.0 (m) PAYLOAD

Associated space launch

Chinese polar orbiting meteorological satellite

FENGYUN 1C DEB was lifted into orbit during the mission ‘Long March 4B | Feng Yun 1C’, on board a Long March 4B space rocket.

The launch took place on May 10, 1999, 1:33 a.m. from Launch Complex 7.

For more information about the launch, click the button.

Launch to space Long March 4B | Feng Yun 1C
Long March 4B | Feng Yun 1C

Agency: N/A

Status: Launch Successful

Launch date: May 10, 1999, 1:33 a.m. UTC

Rocket: Long March 4B

Launch pad: Launch Complex 7

Location: Taiyuan Satellite Launch Center, People's Republic of China

...

Latest news about this satellite

There are no fresh news available about this satellite. Check back as we update our databases every day.


Newsletter sign-up

Weekly statistics, charts and insights to help you stay on top of the space industry.